Regional Weather Roundup
Issued by NWS Burlington, VT

Home | Current Version | Previous Version | Text Only | Print | Product List | Glossary On
Versions: 1 2 3 4 5 6 7 8 9 10 11 12 13 14 15 16 17 18 19 20 21 22 23 24 25 26 27 28 29 30 31 32 33 34 35 36 37 38 39 40 41 42 43 44 45 46 47 48 49 50
618
ASUS41 KBTV 030530
RWRBTV
VERMONT REGIONAL WEATHER ROUNDUP
NATIONAL WEATHER SERVICE BURLINGTON VT
100 AM EDT TUE MAY 03 2016

NOTE: "FAIR" INDICATES FEW OR NO CLOUDS BELOW 12,000 FEET WITH NO
SIGNIFICANT WEATHER AND/OR OBSTRUCTIONS TO VISIBILITY.

* THESE REPORTS ARE NOT UNDER NWS QUALITY CONTROL AND/OR DO NOT
  REPORT WEATHER SUCH AS PRECIPITATION AND FOG.

VTZ001>019-030600-
_____VERMONT_____


CITY           SKY/WX    TMP DP  RH WIND       PRES   REMARKS
BURLINGTON     CLOUDY    45  41  86 NW6       29.95F
MONTPELIER     CLOUDY    42  40  92 W9        29.96S
MORRISVILLE    CLOUDY    44  40  85 N7        29.95S
ST. JOHNSBURY*   N/A     45  42  89 MISG      29.91F
LYNDONVILLE*   CLOUDY    42  41  97 SW6       29.93S
MIDDLEBURY*    CLOUDY    44  44 100 CALM      29.94F
RUTLAND*       CLOUDY    43  39  87 N3        29.94S
SPRINGFIELD    CLOUDY    45  43  93 CALM      29.94R
HIGHGATE*      CLOUDY    43  42  95 CALM      29.96S
NEWPORT*       CLOUDY    42  40  96 NW5       29.93S
BENNINGTON     CLOUDY    48  46  93 N3        29.90F FOG
GALLUP MILLS*    N/A     39 N/A N/A MISG        N/A
UNION VILLAGE*   N/A     43 N/A N/A MISG        N/A
MT. MANSFIELD*   N/A     32 N/A N/A NW14        N/A  WCI  22

_____LAKE CHAMPLAIN_____


CITY           SKY/WX    TMP DP  RH WIND       PRES   REMARKS
COLCHESTER RF*   N/A     45  43  93 N9          N/A
DIAMOND ISL*     N/A     45  43  93 NE9         N/A

$$

NYZ007-026>031-035-052-083-087-030600-
_____NORTHERN NEW YORK_____


CITY           SKY/WX    TMP DP  RH WIND       PRES   REMARKS
SARANAC LAKE   CLOUDY    40  38  93 CALM      29.92F
MASSENA        FOG       39  38  96 CALM      29.98F VSB 1/2
OGDENSBURG*    FOG       37  37 100 CALM      29.96F VSB 3/4
STARK FALLS*     N/A     45 N/A N/A N1          N/A
WATERTOWN      FOG       35  35 100 CALM      29.96F VSB<1/4
FT DRUM        CLOUDY    43  42  97 SE5       29.94F
ALBANY         DRIZZLE   48  46  93 NW6       29.93F FOG
GLENS FALLS    CLOUDY    46  43  89 NE6       29.95S

$$
NHZ002-005-011-030600-
_____NEW HAMPSHIRE_____


CITY           SKY/WX    TMP DP  RH WIND       PRES   REMARKS
LEBANON        CLOUDY    44  42  93 NE3       29.91F FOG
KEENE          CLOUDY    45  43  93 CALM      29.95R
MT WASHINGTON  FRZ DRZL  27  27 100 W24         N/A  VSB 0   WCI  12
PLYMOUTH       CLOUDY    44  43  97 CALM      29.91F
WHITEFIELD     CLOUDY    42  40  92 CALM      29.91F

$$

_____REGIONAL QUEBEC LOCATIONS_____


CITY           SKY/WX    TMP DP  RH WIND       PRES   REMARKS
MONTREAL       PTCLDY    43  39  87 N6        29.97F
QUEBEC CITY    CLOUDY    41  37  87 NE9       29.96S
SHERBROOKE     CLOUDY    39  39 100 NE5       29.91F

_____REGIONAL ONTARIO LOCATIONS_____


CITY           SKY/WX    TMP DP  RH WIND       PRES   REMARKS
OTTAWA         PTCLDY    41  39  93 N2        29.96F

______KEY______
VSB  - VISIBILITY IN MILES
WCI  - WIND CHILL INDEX
HX   - HEAT INDEX
$$
NNNN




USA.gov is the U.S. government's official web portal to all federal, state and local government web resources and services.